Dewpoint
56 51 45 31 19 26 26 30 35 38 41 49 50 48 46 46 46 42 51 54 54 53 54 57 62 64 66 67 68 67 67 66 68 68 69 68 68 68 67 67 69 69 68 67 67 67 66 64 63
54 46 33 21 18 21 25 31 39 41 46 49 48 47 45 44 46 46 47 53 53 52 53 55 60 63 64 65 67 67 66 66 66 68 68 69 68 67 67 67 69 68 68 67 66 66 64 63 64
47 39 28 22 21 20 26 30 35 42 47 48 45 45 43 43 46 47 49 54 52 51 52 53 58 61 62 64 66 67 66 65 65 65 67 68 68 67 67 67 68 67 66 66 65 65 63 63 64
38 31 26 24 27 30 31 33 33 36 36 41 46 42 44 47 46 47 48 53 50 50 51 52 55 58 60 62 64 66 66 65 65 64 64 66 67 67 66 67 67 67 65 62 63 64 63 63 63
30 24 22 27 29 30 33 31 33 34 38 35 41 43 43 46 43 44 48 51 50 50 51 51 53 55 57 59 62 64 65 65 65 64 64 64 64 67 66 66 66 66 66 63 62 64 64 64 64
29 20 18 24 28 30 30 30 33 36 36 36 36 44 45 42 40 43 51 51 49 47 50 49 49 51 53 56 59 61 63 64 62 62 62 63 64 64 67 66 66 65 66 63 65 64 64 64 62
25 20 16 26 27 28 29 30 34 35 36 35 35 32 45 38 36 47 50 49 46 45 48 46 47 47 49 51 55 56 61 63 64 62 61 63 64 63 65 65 66 66 65 64 65 65 64 63 61
26 21 21 27 27 27 28 30 36 35 29 37 34 31 37 38 40 45 46 43 43 43 45 45 44 44 45 47 51 52 57 61 62 63 62 63 63 64 64 63 66 67 65 65 66 65 64 63 60
28 22 20 21 26 27 23 29 29 35 34 34 34 34 36 36 40 38 39 39 40 42 42 43 43 42 43 45 46 48 54 57 60 61 61 61 63 62 62 62 64 66 65 65 65 64 64 63 59
26 23 23 23 21 20 24 25 32 29 26 29 35 33 33 35 35 35 36 37 37 38 39 42 41 42 41 41 44 46 51 54 57 60 61 62 61 62 61 59 61 64 64 64 64 62 62 58 55
23 21 24 27 27 27 27 27 28 31 27 28 29 34 33 33 33 35 35 36 36 37 39 40 41 41 41 41 44 45 47 52 55 57 60 61 62 61 61 62 61 61 60 63 63 60 58 55 53
22 26 26 29 30 28 26 27 25 27 28 31 33 34 33 32 33 34 35 35 35 35 36 38 40 40 41 42 43 43 45 49 53 56 58 58 60 61 60 62 62 61 63 61 59 58 57 55 52
24 27 29 29 29 27 28 25 25 26 28 29 34 33 33 32 33 34 35 36 35 34 35 36 39 40 41 42 42 43 44 47 51 54 56 57 58 60 59 60 63 63 63 60 58 58 57 56 54
27 27 27 28 26 28 27 25 26 24 31 30 33 33 33 33 33 33 34 35 35 34 34 36 38 40 41 41 41 43 44 46 51 53 55 55 57 59 59 59 62 62 62 60 58 57 57 57 56
27 23 25 25 25 25 27 17 25 26 31 30 32 33 32 33 34 33 34 34 34 34 34 35 38 40 39 39 41 42 43 45 49 53 53 54 55 57 58 58 61 61 62 60 58 58 58 58 57
23 22 14 22 24 26 20 6 18 26 28 28 29 29 29 29 29 31 35 35 34 32 31 33 37 38 38 39 40 40 42 45 49 51 52 53 53 54 57 59 59 61 61 60 59 58 58 58 57
19 5 15 15 24 24 24 17 17 26 28 27 27 27 27 28 28 28 31 33 32 30 30 31 33 36 38 39 39 40 41 43 48 50 51 51 51 52 54 55 60 61 60 60 58 58 58 58 57
13 8 11 13 20 24 23 22 23 23 23 23 24 26 27 27 26 28 30 31 29 28 28 30 32 34 37 38 39 39 40 43 46 49 49 49 50 50 53 54 58 60 60 59 59 57 58 57 56
17 18 17 15 25 23 22 22 20 21 22 23 24 26 25 25 29 30 29 29 28 27 27 28 31 34 37 37 37 37 38 40 44 48 48 47 48 49 51 54 57 59 59 58 58 57 55 55 55
20 17 13 14 21 24 22 24 24 24 24 24 23 24 25 25 25 29 29 30 27 26 27 29 31 34 36 38 38 37 38 40 44 47 46 47 48 49 51 54 57 58 59 58 58 56 55 55 55
22 19 16 15 24 24 23 6 2 18 24 25 24 26 27 25 24 28 29 28 26 26 27 29 32 35 36 37 38 38 39 43 45 43 44 46 47 48 50 52 57 59 59 58 57 56 55 54 54
11 24 23 23 21 2 16 -2 -1 14 17 21 22 23 24 26 26 29 29 28 26 26 28 31 33 35 36 37 37 36 36 38 41 41 44 45 48 48 50 52 58 59 59 58 57 57 56 55 53
18 27 24 24 23 21 16 10 2 11 13 13 14 18 24 25 24 26 28 27 27 27 27 31 31 33 36 36 36 36 35 39 40 42 43 45 47 48 49 56 59 59 59 58 58 57 56 55 54
29 25 24 25 21 8 18 2 -0 4 10 10 18 23 23 24 26 28 29 28 28 27 28 28 29 33 35 36 35 35 35 38 39 40 42 44 45 47 49 50 59 59 58 58 58 57 56 56 54
25 16 9 9 8 7 14 10 5 -0 9 12 13 18 22 24 26 27 28 28 27 26 26 27 31 33 34 35 35 36 36 37 38 39 41 43 44 45 46 49 52 58 58 58 58 57 56 55 54
21 14 12 -8 3 5 11 7 1 9 13 17 20 21 24 25 26 28 29 28 28 26 26 27 30 33 34 35 36 36 36 37 38 39 41 43 43 45 46 48 50 54 58 58 58 57 56 55 55
23 22 20 12 10 12 7 6 12 10 14 13 16 20 22 22 25 27 28 28 28 25 25 26 29 33 34 35 36 37 37 37 38 39 40 41 43 44 46 47 49 52 55 57 58 57 56 56 55
24 23 16 16 -4 -1 10 7 8 5 7 9 15 20 22 21 24 26 28 28 27 26 25 27 30 33 34 35 37 36 36 37 37 38 39 40 41 44 45 46 48 50 53 55 58 57 57 56 56
21 21 17 18 16 7 6 10 16 7 3 1 9 18 19 19 20 21 28 29 28 26 25 26 29 32 34 35 37 37 36 37 37 37 38 39 41 43 44 45 47 48 51 54 56 57 56 55 55
25 18 15 14 9 15 15 11 16 17 9 13 14 17 19 20 19 21 27 29 28 27 24 26 29 32 33 35 37 37 37 37 37 38 38 40 40 42 44 45 46 47 49 52 55 54 54 54 52
Lifted_Index
11 11 11 10 8 6 5 6 7 6 5 4 3 3 3 3 3 3 4 5 6 6 5 3 2 1 -0 -1 -2 -2 -2 -2 -3 -3 -3 -3 -3 -2 -2 -2 -3 -3 -2 -2 -1 -0 1 2 3
11 11 11 9 7 5 5 6 7 6 5 4 4 4 4 4 3 3 4 6 7 7 6 4 2 1 -0 -1 -2 -2 -2 -2 -2 -3 -3 -3 -3 -2 -2 -2 -3 -3 -2 -1 -1 0 1 2 3
11 10 10 8 6 4 5 7 7 7 6 5 5 5 4 4 4 4 6 7 8 9 8 6 4 2 1 -1 -1 -2 -2 -2 -2 -2 -2 -3 -3 -2 -2 -2 -2 -2 -2 -1 -0 0 2 2 3
10 10 9 6 5 5 7 8 8 7 7 7 6 6 6 6 6 6 7 9 9 10 9 8 6 4 2 0 -1 -1 -2 -2 -2 -1 -1 -2 -2 -2 -1 -1 -2 -1 -1 0 1 1 1 2 2
10 9 7 5 5 6 8 9 9 8 8 8 8 7 7 8 8 8 9 9 10 10 11 10 8 6 4 2 0 -1 -1 -1 -1 -1 -1 -1 -1 -1 -1 -1 -1 -1 -0 1 1 1 1 2 2
9 8 5 4 5 6 8 9 9 9 9 9 9 8 8 9 9 9 9 10 11 11 12 11 9 8 5 3 1 0 -1 -1 -1 -1 -0 0 0 -0 -1 -1 -1 -1 -0 0 0 0 1 1 2
8 7 5 4 4 6 8 9 10 10 10 10 10 9 9 10 10 10 11 11 12 12 12 11 10 8 6 4 2 1 0 -0 -0 -0 0 1 1 1 0 -0 -0 -0 -0 0 0 0 1 2 2
8 6 5 4 4 5 8 9 10 10 11 11 11 11 10 11 11 11 12 13 13 13 12 11 10 8 6 4 3 1 0 0 0 0 0 0 1 1 1 0 -0 -0 0 0 0 0 1 2 3
8 6 5 5 5 6 8 9 10 11 11 12 12 12 11 12 12 13 13 13 13 12 12 11 10 8 6 4 3 2 0 -0 0 0 0 0 0 1 1 1 0 0 0 0 1 1 2 3 4
7 5 5 6 6 7 8 9 10 10 10 11 12 12 12 12 12 13 13 13 12 12 12 11 10 8 7 5 4 2 1 -0 -0 0 0 0 0 1 1 1 1 0 1 1 1 2 3 4 4
6 6 6 7 8 8 8 9 9 9 10 11 12 12 12 12 13 13 13 12 11 11 11 10 10 9 8 7 5 4 2 1 -0 -0 -0 0 0 1 2 2 1 1 1 1 1 3 4 5 5
6 6 7 8 9 9 9 9 9 10 11 12 12 12 12 12 13 13 12 11 11 10 9 9 9 10 10 9 7 5 3 2 0 -0 -0 0 0 1 2 2 1 1 1 1 1 3 5 6 7
6 6 7 8 9 9 8 8 9 10 12 12 13 12 13 13 13 13 12 11 10 10 9 8 9 10 11 11 9 6 4 2 1 0 0 0 0 1 2 2 1 0 0 1 1 3 4 6 7
6 7 7 8 8 8 8 7 8 10 11 12 12 13 13 13 13 12 11 10 10 9 9 9 9 11 12 12 11 8 6 4 2 2 1 1 0 1 1 1 1 1 1 1 1 2 3 5 6
6 6 6 7 7 8 7 6 7 9 10 11 12 12 12 12 12 12 11 10 9 9 9 9 11 12 13 13 11 10 8 5 3 2 2 2 1 1 1 1 1 1 1 1 2 2 3 4 5
5 5 5 6 7 7 6 5 6 8 9 10 11 11 11 12 12 11 10 9 9 9 9 10 11 12 13 12 11 10 9 7 4 3 2 2 2 1 1 1 1 1 1 2 2 2 3 3 4
4 4 4 5 6 6 5 5 6 8 9 9 10 11 11 11 11 11 10 9 9 9 10 11 12 12 12 11 10 9 9 7 5 3 2 2 2 2 1 1 1 0 1 1 2 2 2 3 3
4 4 4 5 5 5 4 5 6 7 8 8 9 10 11 11 12 12 11 10 10 10 10 11 12 12 12 10 8 8 8 7 4 3 2 2 2 2 1 1 1 1 1 1 2 2 2 3 3
4 4 4 5 5 5 4 4 5 6 7 8 9 10 11 11 12 12 11 11 10 10 11 12 12 12 11 10 8 8 8 6 4 2 2 2 1 1 1 1 1 1 1 2 2 2 2 2 2
4 4 4 5 6 5 4 4 4 5 6 7 9 10 11 11 12 12 12 11 11 11 11 12 13 13 12 10 8 7 7 6 3 2 1 1 1 1 1 1 1 1 2 2 2 2 2 2 2
4 4 4 5 5 5 4 3 4 5 6 7 8 9 10 11 12 12 12 12 11 12 12 12 14 14 12 10 8 8 7 5 3 1 0 0 0 0 0 1 1 1 1 2 2 2 2 2 2
4 5 5 4 4 4 4 3 3 4 5 6 7 9 10 11 11 12 12 12 12 12 12 13 14 14 12 10 8 8 7 5 3 2 0 -0 -0 0 0 1 1 1 1 2 2 2 2 2 2
5 5 5 5 4 3 3 3 3 4 4 5 6 8 10 11 11 12 12 13 13 13 13 14 15 14 12 10 8 8 7 6 4 3 2 1 1 1 1 0 1 1 1 1 2 2 2 2 2
6 5 4 4 3 2 3 3 3 4 4 5 6 8 9 11 11 12 12 13 13 13 14 14 15 14 12 10 9 8 7 6 5 4 3 2 2 2 1 1 0 1 1 1 2 2 2 2 2
6 5 3 2 1 2 3 3 3 4 5 6 7 8 9 11 11 11 12 13 14 14 15 15 15 14 12 10 9 8 8 7 6 5 3 3 3 3 3 2 1 1 1 2 2 2 2 1 2
5 4 3 2 1 2 3 3 4 5 6 7 8 8 9 10 11 11 12 12 14 15 15 15 15 14 12 10 10 9 8 8 7 5 4 3 3 3 3 2 1 1 2 2 2 1 1 1 2
4 4 4 3 2 1 2 3 4 5 6 7 7 8 9 10 10 11 11 12 14 15 15 16 15 13 12 11 10 9 9 8 8 6 5 4 4 4 4 3 2 2 2 2 1 1 1 1 1
4 4 4 3 2 1 1 2 4 5 6 6 6 7 8 9 9 10 11 12 13 14 15 15 15 13 12 11 11 10 10 10 9 8 6 5 4 4 4 3 3 2 2 1 1 1 1 1 1
4 4 4 3 2 1 1 2 4 5 5 5 6 6 7 7 8 9 11 12 13 13 14 14 14 13 12 12 11 11 11 11 11 10 8 7 5 5 4 4 3 3 2 2 1 1 1 1 1
4 3 3 3 3 2 2 2 4 5 5 5 5 6 6 7 8 9 10 11 12 13 13 14 13 13 12 12 12 12 12 12 12 11 10 9 7 5 5 4 4 3 2 2 1 1 1 1 1